Regional Weather Roundup
Issued by NWS Charleston, SC

Current Version | Previous Version | Graphics & Text | Print | Product List | Glossary On
Versions: 1 2 3 4 5 6 7 8 9 10 11 12 13 14 15 16 17 18 19 20 21 22 23 24 25 26 27 28 29 30 31 32 33 34 35 36 37 38 39 40 41 42 43 44 45 46 47 48 49 50
572 ASUS42 KCHS 060712 RWRCHS REGIONAL WEATHER ROUNDUP NATIONAL WEATHER SERVICE CHARLESTON SC 200 AM EST SAT FEB 06 2016 NOTE: "FAIR" INDICATES FEW OR NO CLOUDS BELOW 12,000 FEET WITH NO SIGNIFICANT WEATHER AND/OR OBSTRUCTIONS TO VISIBILITY. NOT ALL STATIONS ARE QUALITY CONTROLLED BY THE NATIONAL WEATHER SERVICE. USE DATA WITH CAUTION...ESPECIALLY DEWPOINT OBSERVATIONS. NOTICE: OBSERVATIONS FOR THE SAVANNAH-HILTON HEAD INTERNATIONAL AIRPORT /KSAV/ HAVE BEEN TEMPORARILY REMOVED DUE TO AN ERRONEOUS TEMPERATURE SENSOR. THE OBSERVATION WILL BE REINTRODUCED ONCE REPAIRS ARE COMPLETE. SCZ027-030-031-034>040-042>050-060800- ...SOUTHEAST SOUTH CAROLINA... CITY SKY/WX TMP DP RH WIND PRES REMARKS N CHARLESTON CLEAR 34 30 85 NE5 30.38S WCI 30 WATERFRONT PRK N/A 43 34 70 NE8 30.22F MOUNT PLEASANT FAIR 36 34 93 CALM 30.38S JOHNS ISLAND FAIR 36 32 87 NW3 30.38S PINOPOLIS N/A 45 32 61 NE9 30.31S MONCKS CORNER FAIR 32 28 86 CALM 30.38S SUMMERVILLE NOT AVBL BEAUFORT MCAS CLEAR 39 30 70 NE5 30.38S WCI 36 BEAUFORT ARPT FAIR 36 32 87 NE3 30.37F HILTON HEAD IS CLEAR 43 32 65 N6 30.38F WALTERBORO MOSUNNY 36 32 87 CALM 30.39S ALLENDALE FAIR 34 30 86 CALM 30.37S ...SOUTHERN MIDLANDS AND PEE DEE... CITY SKY/WX TMP DP RH WIND PRES REMARKS GEORGETOWN NOT AVBL KINGSTREE NOT AVBL ORANGEBURG CLEAR 32 27 81 NE3 30.37F BARNWELL FAIR 32 30 93 CALM 30.38S AIKEN FAIR 28 27 93 CALM 30.40F MANNING NOT AVBL COLUMBIA CLEAR 30 26 85 CALM 30.38F SUMTER CLEAR 30 24 76 NE3 30.36F FLORENCE CLEAR 32 29 88 CALM 30.39F MYRTLE BEACH CLEAR 36 27 69 N5 30.41F WCI 32 N MYRTLE BEACH CLEAR 33 31 92 NE3 30.38F $$ GAZ063-065-086>088-099>101-113>116-118-119-134>141-150-060800- ...SOUTHEAST GEORGIA... CITY SKY/WX TMP DP RH WIND PRES REMARKS SAVANNAH ARPT PTCLDY 40 27 59 NE5 30.37F WCI 37 HUNTER AAF CLEAR 41 28 59 N2 30.34F FORT STEWART PTCLDY 32 29 90 CALM 30.34F STATESBORO CLEAR 35 34 96 CALM 30.38S SYLVANIA SUNNY 32 32 99 CALM 30.38S CLAXTON FAIR 33 33 98 CALM 30.38S ...CSRA...CENTRAL AND FAR SOUTHEAST GEORGIA... CITY SKY/WX TMP DP RH WIND PRES REMARKS THOMSON CLOUDY 29 29 100 CALM 30.42S AUGUSTA-BUSH CLEAR 28 27 96 W3 30.38F AUGUSTA-DANIEL CLEAR 39 20 46 E3 30.37F SWAINSBORO FAIR 37 27 65 NE5 30.37S WCI 34 VIDALIA CLEAR 36 30 80 CALM 30.36S EASTMAN FOG 30 30 100 CALM 30.39S VSB 1 HAZLEHURST FAIR 39 30 70 E5 30.35S WCI 36 ALMA CLEAR 33 32 96 CALM 30.34F WAYCROSS CLEAR 39 35 84 NE6 30.32F WCI 35 JESUP FAIR 36 34 93 CALM 30.35F BAXLEY FAIR 34 34 100 CALM 30.35F BRUNSWICK CLEAR 41 34 75 N7 30.33F SAINT SIMONS CLEAR 42 36 79 N8 30.31F $$ SCZ027-028-034-036>038-045-046-048>050-GAZ119-141-060800- ...LAKE AND SUPPLEMENTAL COASTAL OBSERVATIONS... STATION/POSITION TIME TEMP WIND PRES WAVE SWELL AIR SEA DIR/SP/G HT/PER HT/PER/DIR (UTC) (F) (DEG/KT/KT) (MB) (FT/S) (FT/S/D) WINYAH BAY NOT AVBL LAKE MURRAY 0600 36 CALM / 1 1028.4F ACE BASIN NERRS NOT AVBL FORT PULASKI 0600 47 55 30/ 11/ 14 1028.8R SAPELO ISLAND 0600 40 10/ 4 1028.0S $$ ANZ835-935-AMZ111-154-330-350-352-354-370-450-454-472-060800- ...C-MAN AND BUOY OBSERVATIONS... STATION/POSITION TIME TEMP WIND PRES WAVE SWELL AIR SEA DIR/SP/G HT/PER HT/PER/DIR (UTC) (F) (DEG/KT/KT) (MB) (FT/S) (FT/S/D) BUOY 41004 0650 52 67 40/ 12/ 17 1027.2F 4/ 6 2/ 8 BUOY 41008 0650 51 56 30/ 17/ 21 1026.7F 3/ 4 2/140/10 FOLLY BEACH CMAN 0700 47 30/ 12/ 14 1028.5F CAPERS NEARSHORE 0608 48 50/ 14/ 17 1028.0R FRIPP NEARSHORE 0600 49 50/ 14/ 16 1027.3F STATION/POSITION TIME TEMP WIND PRES WAVE SWELL AIR SEA DIR/SP/G HT/PER HT/PER/DIR (UTC) (F) (DEG/KT/KT) (MB) (FT/S) (FT/S/D) 5E ST. MARYS GA 0621 58 N/A 4/ 4 FRYING PAN BUOY 0600 50 69 10/ 16/ 19 1028.3F BUOY 41025 0650 45 73 20/ 14/ 19 1029.0F 8/10 7/ 50/10 CAPE LOOKOUT NC NOT AVBL BUOY 41002 0650 58 69 40/ 16/ 19 N/A 10/11 8/ 10/11 BUOY 41010 0620 66 73 1022.6F ST AUGUSTINE FL 0700 55 59 20/ 26/ 28 1024.3F $$

USA.gov is the U.S. government's official web portal to all federal, state and local government web resources and services.